www.pogodaiklimat.ru

Архив погоды в Мирном (Якутия, Россия)

Время
(UTC), дата
15 9.06
18 9.06
21 9.06
00 10.06
03 10.06
06 10.06
09 10.06
12 10.06
15 10.06
18 10.06
21 10.06
00 11.06
03 11.06
06 11.06
09 11.06
12 11.06
15 11.06
18 11.06
21 11.06
00 12.06
03 12.06
06 12.06
09 12.06
12 12.06
15 12.06
18 12.06
21 12.06
00 13.06
03 13.06
06 13.06
09 13.06
12 13.06
15 13.06
18 13.06
21 13.06
00 14.06
03 14.06
06 14.06
09 14.06
12 14.06
15 14.06
18 14.06
21 14.06
00 15.06
03 15.06
06 15.06
09 15.06
12 15.06
15 15.06
18 15.06
21 15.06
00 16.06
03 16.06
06 16.06
Ветер
(напр.,м/с)
Видим. Явления Облачность Т
(С)
Тd
(С)
f
(%)
Тe
(С)
Тes
(С)
Комфортность P
(гПа)
Po
(гПа)
Тmin
(С)
Tmax
(С)
R
(мм)
R24
(мм)
S
(см)
З 3 50 км 10/0
[Ci sp]
+14.5 +5.9 56 +14 +14 1006.8 965.4
ЮЗ 2 50 км 6/0
[Ci fib]
+10.8 +6.3 74 +10 +10 1007.9 965.9
СЗ 3 50 км 3/0
[Ci fib]
+12.7 +5.7 62 +11 +12 1008.5 966.7
СЗ 2 50 км 3/0
[Ci fib]
+17.2 +7.6 53 +18 +23 1008.2 967.1 +10.1
СЗ 2 50 км 6/0
[Ci fib]
+21.7 +7.1 39 +23 +33 комфорт 1007.0 966.6
З 3 50 км 10/5 1000 м
[Cu hum Ci fib]
+24.5 +5.8 30 +24 +28 комфорт 1005.9 965.8
СВ 4-10 {18} 50 км в посл. час гроза {ливн. дождь} 10/6 1000 м
[Cb cap Ac trans Ci fib]
+17.2 +8.1 55 +17 +18 1008.3 966.3
З 3 {10} 50 км {гроза, ливн. дождь} 10/4 1000 м
[Cb cap Ac As Ci fib]
+17.4 +9.1 58 +17 +18 1008.4 967.3 +24.9 10
С 3 50 км 10/0
[Ac As Ci fib]
+14.8 +6.0 56 +14 +14 1008.9 967.4
С 4 50 км 10/0
[Ac As Ci fib]
+13.4 +6.2 62 +12 +12 1009.4 967.7
З 1 50 км 10/3 1000 м
[Sc Ac trans Ci fib]
+11.9 +7.6 75 +12 +12 1010.3 968.4
СВ 1 50 км 10/3 1500 м
[Sc diur, vesp Ci fib]
+19.5 +7.2 45 +21 +25 комфорт 1009.7 968.8 +9.4
С 2 50 км 10/0
[Ac trans Ci fib]
+23.5 +6.8 34 +24 +32 комфорт 1008.9 968.6
СВ 4 50 км 10/4 1000 м
[Cb cap Ci fib]
+25.9 +4.0 24 +25 +29 комфорт 1007.5 967.5
СВ 6 {11} 50 км 10/4 1000 м
[Cb cap Ac trans Ci fib]
+24.8 +4.5 27 +24 +25 комфорт 1008.0 967.9
С 3 {11} 50 км 10/4 1000 м
[Sc diur, vesp Ac As Ci fib]
+21.5 +5.9 36 +22 +22 комфорт 1009.0 968.4 +26.1
С 3 50 км 10/3 1000 м
[Sc Ac As Ci fib]
+17.0 +7.5 54 +17 +17 1010.0 968.8
С 2 50 км 10/3 1500 м
[Sc Ac trans Ci fib]
+14.7 +6.2 57 +15 +15 1010.9 969.3
С 3 50 км 10/0
[Ac trans Ci fib]
+15.1 +5.6 53 +15 +15 1010.9 969.3
СВ 1 50 км 4/0
[Ci fib]
+21.1 +7.4 41 +22 +29 комфорт 1010.4 969.7 +13.8
СВ 2 50 км 4/3 1500 м
[Cu med, cong Ci fib]
+25.0 +4.5 27 +24 +33 комфорт 1009.7 969.5
СВ 2 50 км 8/4 1000 м
[Cu med, cong Ci fib]
+26.0 +3.7 24 +25 +31 комфорт 1008.3 968.3
СЗ 2 50 км 10/4 1000 м
[Cb cap Ci fib]
+25.2 +4.0 25 +24 +27 комфорт 1007.6 967.5
ЮЗ 4 50 км 10/3 1000 м
[Sc diur, vesp Ac trans Ci fib]
+23.7 +5.7 31 +24 +24 комфорт 1008.1 967.8 +26.5
СВ 1 50 км 10/0
[Ac trans Ci fib]
+16.8 +8.3 57 +18 +18 1009.1 967.9
З 1 50 км 10/0
[Ac trans Ci fib]
+14.9 +8.0 63 +16 +16 1009.4 967.9
СЗ 1 50 км 10/0
[Ci fib]
+15.6 +8.5 63 +16 +17 1009.2 967.8
ЮЗ 1 50 км 6/0
[Ci fib]
+20.5 +11.8 57 +24 +30 комфорт 1008.1 967.5 +10.4
Ю 2 50 км 10/3 1000 м
[Cu med, cong Ci fib]
+26.0 +6.0 28 +26 +33 жарко 1006.7 966.8
Ю 5 50 км 10/5 1000 м
[Cu med, cong Ci fib]
+25.6 +7.2 31 +26 +28 жарко 1005.4 965.5
ЮЗ 4 50 км 10/4 1000 м
[Sc diur, vesp Ci fib]
+26.8 +6.1 27 +26 +28 жарко 1003.9 964.2
С 7-10 {13} 50 км 10/3 1000 м
[Cb cap Ci fib]
+22.2 +7.7 39 +23 +23 комфорт 1004.8 964.5 +27.3
ЮЗ 2 {10} 50 км 10/0
[Ac trans Ci fib]
+16.5 +10.1 66 +17 +17 1005.0 963.9
З 4 {10} 50 км 10/0
[Ac trans Ci fib]
+16.8 +8.3 57 +16 +16 1004.7 963.7
С 4 10 км гроза, ливневой дождь 10/5 600 м
[Cb cap Ac trans Ci fib]
+13.7 +11.0 84 +12 +12 1005.3 963.9
ЮЗ 2 50 км {гроза, ливн. дождь} 10/3 1000 м
[Cb cap Ac trans Ci fib]
+16.0 +12.8 81 +16 +18 1004.7 963.7 +13.0 2
СЗ 4 50 км 10/3 1000 м
[Sc diur, vesp Ci fib]
+19.9 +11.4 58 +21 +26 комфорт 1004.1 963.6
С 3 50 км 10/6 1000 м
[Sc diur, vesp Ci fib]
+21.6 +9.9 47 +23 +26 комфорт 1002.1 961.9
З 4 50 км 10/4 1000 м
[Sc diur, vesp Ci fib]
+22.7 +7.1 37 +24 +25 комфорт 1000.3 960.3
В 1 50 км 10/5 1000 м
[Sc Ci fib]
+21.9 +7.3 39 +23 +23 комфорт 999.2 959.1 +23.0
ЮВ 2 50 км гроза без осадков {ливн. дождь} 10/5 600 м
[Cb cap Ac As Ci fib]
+16.3 +13.3 82 +16 +16 996.7 956.0
ЮЗ 3 10 км слаб. ливневой дождь {гроза} 10/4 600 м
[Cb cap Ac und]
+14.8 +12.5 86 +14 +14 993.4 952.6
ЮЗ 4 10 км слаб. ливневой дождь 10/8 210 м
[Cb cap Ac und]
+13.7 +12.4 92 +12 +12 991.4 950.5
З 4 {11} 50 км {ливн. дождь} 10/6 300 м
[Cb cap Ac trans Ci fib]
+12.4 +10.3 87 +10 +11 991.1 950.1 +12.0 2
З 3 {10} 50 км в посл. час ливневой дождь 10/6 600 м
[Cb cap Ac trans Ci fib]
+13.8 +9.1 73 +13 +15 990.8 950.0 +11.4
З 4 {10} 50 км {ливн. дождь} 10/5 600 м
[Cb cap Ci fib]
+14.6 +6.2 57 +14 +17 991.4 950.6
СЗ 5 {11} 50 км {ливн. дождь} 10/4 1000 м
[Cb cap Ac trans Ci fib]
+14.1 +6.9 62 +13 +13 993.1 952.2
С 5 {14} 50 км в посл. час ливневой дождь 10/6 300 м
[Cb cap Ac As]
+7.6 +5.4 86 +4 +4 998.0 955.9 +15.0 2
С 5 {11} 50 км 10/6 210 м
[Cb cap Ac As]
+4.8 +3.2 89 0 0 1001.2 958.5
СЗ 3 {11} 50 км в посл. час морось 10/6 300 м
[Cb cap Ac As]
+4.3 +3.2 93 +1 +1 1002.3 959.5
СЗ 4 50 км 10/5 1000 м
[Cb cap Ac und]
+5.8 +2.6 80 +2 +2 1002.8 960.2
СЗ 5 {10} 50 км 10/5 600 м
[Cb cap Ac trans Ci fib]
+7.4 +2.0 69 +4 +5 1004.3 961.9 +4.1 0.0
СЗ 5 {11} 50 км 10/6 1170 м
[Sc Ac und Ci fib]
+10.5 +2.0 56 +8 +9 1004.6 962.6
З 4 {11} 50 км 10/4 1000 м
[Sc Ci fib]
+11.6 +3.5 58 +10 +14 1005.0 963.2
Местоположение метеостанции Мирный (Якутия, Россия): широта 62.53 долгота 114.04 высота над уровнем моря 352 м.
В архиве по умолчанию представлена погода в Мирном за последнюю неделю. Архивные данные за месяц целиком и за предыдущие месяцы, начиная с января 2011 года, Вы можете получить, выбрав интересующий диапазон дат из раскрывающегося списка и нажав кнопку "Найти!".
*Определитесь, кто Вы:
Внимание! Время в таблицах - всемирное. Для получения местного времени необходимо прибавить поправку, которая равна 9 ч.
Некоторые строки с данными для отдельных станций могут быть выделены курсивом. Это означает, что фактические данные отсутствуют по различным причинам, а приведенные значения являются расчетными модельными данными для данного пункта наблюдений.
Смотрите также архив погоды в соседних городах и на ближайших метеорологических станциях:
Партнеры нашего сайта:      
Пояснения к столбцам:
  • Ветер - указаны скорость ветра в м/с - средняя за 10 мин, порывы в срок и между сроками (в фигурных скобках) и направление, откуда дует ветер: С - северный,
  • СВ - северо-восточный, В - восточный, ЮВ - юго-восточный, Ю - южный, ЮЗ - юго-западный, З - западный, СЗ - северо-западный.
  • Видимость - горизонтальная дальность видимости в метрах или километрах. При видимости от 1 до 10 км при отсутствии осадков обычно наблюдается дымка, при ухудшении видимости до 1 км и менее - туман. В сухую погоду видимость может ухудшаться дымом, пылью или мглою.
  • Явления - указаны атмосферные явления, наблюдавшиеся в срок или в последний час перед сроком; фигурными скобками обозначены явления, наблюдавшиеся между сроками (за 1-3 часа до срока); квадратными скобками обозначены град или гололедные отложения с указанием их диаметра в мм.
  • Облачность - указаны через наклонную черту общая и нижняя облачность в баллах и высота нижней границы облаков в метрах; квадратными скобками обозначены формы облаков: Ci - перистые, Cs - перисто-слоистые, Cc - перисто-кучевые, Ac - высококучевые, As - высокослоистые, Sc - слоисто-кучевые, Ns - слоисто-дождевые, Cu - кучевые, Cb - кучево-дождевые. Подробнее классификацию облаков см. в Атласе облаков (PDF).
  • T - Температура воздуха - температура, измеренная на высоте 2 м над землей.
  • Td - Температура точки росы - температура, при понижении до которой содержащийся в воздухе водяной пар достигнет насыщения.
  • f - Относительная влажность воздуха - влажноcть воздуха, измеренная на высоте 2 м над землей.
  • Te - Эффективная температура - температура, которую ощущает одетый по сезону человек в тени. Характеристика душности погоды. При расчете учитывается влияние влажности воздуха и скорости ветра на теплоощущения человека.
  • Tes - Эффективная температура на солнце - температура, которую ощущает человек, с поправкой на солнечный нагрев. Характеристика знойности погоды. Зависит от высоты солнца над горизонтом, облачности и скорости ветра. Ночью, в пасмурную погоду, а также при ветре 12 м/с и более поправка равна нулю.
  • P - Атмосферное давление - приведенное к уровню моря атмосферное давление.
  • Po - Атмосферное давление - измеренное на уровне метеостанции атмосферное давление.
  • Tmin - Минимальная температура - минимум температуры воздуха на высоте 2 м над землей.
  • Tmax - Максимальная температура - максимум температуры воздуха на высоте 2 м над землей.
  • R - Количество осадков - Количество выпавших осадков за период времени, мм. При наведении курсора мыши на число - период времени, за который выпало указанное количество осадков.
  • R24 - Количество осадков - Количество выпавших осадков за 24 часа, мм.
  • S - Снежный покров - Высота снежного покрова, см. При наведении курсора мыши на число - состояние снежного покрова и степень покрытия местности в баллах.